| time (UTC) | temp C | wind direction | speed KPH | gust KPH | rain 1hr cm | rain 24hr cm | rain mn cm | humidity % | barometer mb |
| 20260506145509 | 27 | 200 | 0.0 | 0.0 | 0.00 | 0.03 | 0.03 | 40 | 1012.8 |
| 20260506144506 | 26 | 203 | 0.0 | 0.0 | 0.00 | 0.03 | 0.03 | 35 | 1012.7 |
| 20260506143510 | 26 | 165 | 0.0 | 0.0 | 0.00 | 0.03 | 0.03 | 28 | 1012.7 |
| 20260506142443 | 26 | 225 | 0.0 | 0.0 | 0.00 | 0.03 | 0.03 | 23 | 1012.4 |
| 20260506141435 | 26 | 263 | 0.0 | 0.0 | 0.00 | 0.03 | 0.03 | 16 | 1012.3 |
| 20260506135317 | 25 | 180 | 0.0 | 0.0 | 0.00 | 0.00 | 0.00 | 1 | 1012.3 |
| 20260506130927 | 24 | 259 | 0.0 | 0.0 | 0.00 | 0.00 | 0.00 | 1 | 1012.3 |
| 20260506003046 | 25 | 212 | 0.0 | 0.0 | 0.00 | 0.00 | 0.00 | 70 | 1011.2 |
| 20260506002012 | 25 | 188 | 0.0 | 0.0 | 0.00 | 0.00 | 0.00 | 71 | 1011.2 |
| 20260506000944 | 25 | 231 | 0.0 | 0.0 | 0.00 | 0.00 | 0.00 | 71 | 1011.2 |
| 20260505235923 | 26 | 165 | 0.0 | 0.0 | 0.00 | 0.00 | 0.00 | 72 | 1011.1 |
| 20260505234902 | 26 | 189 | 0.0 | 0.0 | 0.00 | 0.00 | 0.00 | 73 | 1011.2 |
| 20260505233921 | 26 | 212 | 0.0 | 0.0 | 0.00 | 0.00 | 0.00 | 72 | 1011.2 |
| 20260505231804 | 26 | 225 | 0.0 | 0.0 | 0.00 | 0.00 | 0.00 | 73 | 1011.2 |
| 20260505230811 | 26 | 204 | 0.0 | 0.0 | 0.00 | 0.00 | 0.00 | 72 | 1011.2 |
| 20260505225755 | 26 | 179 | 0.0 | 0.0 | 0.00 | 0.00 | 0.00 | 71 | 1011.2 |
| 20260505224748 | 27 | 200 | 0.0 | 0.0 | 0.00 | 0.00 | 0.00 | 70 | 1011.2 |
| 20260505223740 | 27 | 267 | 0.0 | 0.0 | 0.00 | 0.00 | 0.00 | 69 | 1011.0 |
| 20260505222750 | 27 | 186 | 0.0 | 0.0 | 0.00 | 0.00 | 0.00 | 70 | 1011.0 |
| 20260505221745 | 27 | 250 | 0.0 | 0.0 | 0.00 | 0.00 | 0.00 | 70 | 1011.2 |
| 20260505220741 | 27 | 210 | 0.0 | 0.0 | 0.00 | 0.00 | 0.00 | 71 | 1011.2 |
| 20260505215802 | 27 | 225 | 0.0 | 0.0 | 0.00 | 0.00 | 0.00 | 71 | 1011.2 |
| 20260505214755 | 27 | 172 | 0.0 | 0.0 | 0.00 | 0.00 | 0.00 | 71 | 1011.2 |